FW3268 Weather Reports


Display with metric or nautical units.
time (UTC)temp
F
wind
direction
speed
MPH
gust
MPH
rain 1hr
in
rain 24hr
in
rain mn
in
humidity
%
barometer
mb
20260905081459 76 262 0.0 0.0 0.00 0.00 0.00 90 1012.8
20260905080002 76 260 0.0 0.0 0.00 0.00 0.00 90 1012.7
20260905073000 75 247 0.0 0.0 0.00 0.00 0.00 93 1012.5
20260905064459 74 248 0.0 0.0 0.00 0.00 0.00 94 1012.0
20260905063000 74 249 0.0 0.0 0.00 0.00 0.00 95 1012.4
20260905061459 75 240 0.0 0.0 0.00 0.00 0.00 95 1012.7
20260905060002 75 156 0.0 0.0 0.00 0.00 0.00 95 1013.0
20260905054459 75 156 0.0 0.0 0.00 0.00 0.00 95 1013.2
20260905051500 75 142 0.0 0.0 0.00 0.00 0.00 94 1013.3
20260905050003 75 143 0.0 0.0 0.00 0.00 0.00 95 1013.4
20260905043000 76 143 0.0 0.0 0.00 0.00 0.00 95 1013.5
20260905034501 76 143 0.0 0.0 0.00 0.00 0.00 93 1013.8
20260905033001 77 143 0.0 0.0 0.00 0.00 0.00 93 1013.8
20260905031501 78 143 0.0 0.0 0.00 0.00 0.00 93 1013.9
20260905030003 78 143 0.0 0.0 0.00 0.00 0.00 92 1013.8
20260905024502 78 142 0.0 0.0 0.00 0.00 0.00 92 1013.8
20260905021503 79 144 0.0 0.0 0.00 0.00 0.00 91 1013.6
20260905020005 79 144 0.0 0.0 0.00 0.00 0.00 91 1013.5
20260905013001 80 144 0.0 0.0 0.00 0.00 0.00 90 1013.5
20260905011501 80 137 0.0 0.0 0.00 0.00 0.00 89 1013.3
20260905010004 81 126 0.0 0.0 0.00 0.00 0.00 88 1013.3
20260905004502 81 166 0.0 0.0 0.00 0.00 0.00 87 1013.1
20260905003000 82 155 0.0 0.0 0.00 0.00 0.00 88 1013.2
20260905000003 84 132 0.0 0.0 0.00 0.00 0.00 86 1013.3
20260904233002 86 122 0.0 0.0 0.00 0.00 0.00 81 1013.2
20260904231500 87 113 0.0 0.0 0.00 0.00 0.00 80 1013.2
20260904230004 87 118 0.0 0.0 0.00 0.00 0.00 80 1013.3
20260904224459 89 90 0.0 0.0 0.00 0.00 0.00 77 1013.2
20260904223001 89 121 0.0 0.0 0.00 0.00 0.00 75 1013.1
20260904221459 90 109 0.0 0.0 0.00 0.00 0.00 75 1013.1
20260904213002 90 85 0.0 0.0 0.00 0.00 0.00 73 1013.1
20260904211501 90 101 0.0 0.0 0.00 0.00 0.00 73 1013.1
20260904210004 90 137 0.0 0.0 0.00 0.00 0.00 74 1012.9
20260904204501 92 185 0.0 0.0 0.00 0.00 0.00 65 1012.9
20260904203001 93 147 0.0 0.0 0.00 0.00 0.00 63 1013.4
20260904201502 93 50 0.0 0.0 0.00 0.00 0.00 63 1013.5
20260904194503 92 68 0.0 0.0 0.00 0.00 0.00 64 1014.0
20260904193001 92 60 0.0 0.0 0.00 0.00 0.00 67 1014.5
20260904190003 91 22 0.0 0.0 0.00 0.00 0.00 67 1015.1
20260904183000 91 289 0.0 0.0 0.00 0.00 0.00 66 1015.3
20260904181459 91 305 0.0 0.0 0.00 0.00 0.00 64 1015.2
20260904180004 90 291 0.0 0.0 0.00 0.00 0.00 66 1015.3
20260904174500 89 262 0.0 0.0 0.00 0.00 0.00 65 1015.2
20260904172959 88 282 0.0 0.0 0.00 0.00 0.00 73 1015.3
20260904171500 86 298 0.0 0.0 0.00 0.00 0.00 76 1015.5
20260904170004 84 284 0.0 0.0 0.00 0.00 0.00 81 1015.6
20260904164500 85 288 0.0 0.0 0.00 0.00 0.00 75 1016.1
20260904163000 89 283 0.0 0.0 0.00 0.00 0.00 71 1016.2
20260904161500 90 285 0.0 0.0 0.00 0.00 0.00 69 1016.1
20260904154459 89 283 0.0 0.0 0.00 0.00 0.00 69 1015.7
20260904151458 88 276 0.0 0.0 0.00 0.00 0.00 72 1015.7
20260904144500 86 273 0.0 0.0 0.00 0.00 0.00 75 1015.9
20260904142959 85 283 0.0 0.0 0.00 0.00 0.00 76 1015.8
20260904141500 84 279 0.0 0.0 0.00 0.00 0.00 76 1015.8
20260904140004 84 285 0.0 0.0 0.00 0.00 0.00 78 1015.6
20260904134501 83 271 0.0 0.0 0.00 0.00 0.00 79 1015.6
20260904132959 81 266 0.0 0.0 0.00 0.00 0.00 84 1015.6
20260904131459 80 244 0.0 0.0 0.00 0.00 0.00 84 1015.4
20260904130003 78 257 0.0 0.0 0.00 0.00 0.00 87 1015.4
20260904124459 76 283 0.0 0.0 0.00 0.00 0.00 90 1015.5
20260904120003 74 250 0.0 0.0 0.00 0.00 0.00 91 1015.2
20260904114459 73 256 0.0 0.0 0.00 0.00 0.00 92 1015.0
20260904112959 72 249 0.0 0.0 0.00 0.00 0.00 93 1014.6
20260904111459 72 243 0.0 0.0 0.00 0.00 0.00 92 1014.3
20260904110003 72 235 0.0 0.0 0.00 0.00 0.00 92 1014.2
20260904104459 72 241 0.0 0.0 0.00 0.00 0.00 91 1014.2
20260904102959 73 252 0.0 0.0 0.00 0.00 0.00 91 1014.2
20260904101500 73 252 0.0 0.0 0.00 0.00 0.00 90 1014.3
20260904100001 73 252 0.0 0.0 0.00 0.00 0.00 89 1014.4
20260904094459 73 252 0.0 0.0 0.00 0.00 0.00 88 1014.2
20260904093000 74 252 0.0 0.0 0.00 0.00 0.00 88 1014.2
20260904091500 74 252 0.0 0.0 0.00 0.00 0.00 87 1014.0
20260904090003 74 233 0.0 0.0 0.00 0.00 0.00 87 1013.9
20260904084459 74 255 0.0 0.0 0.00 0.00 0.00 86 1013.9